TimeCST,TemperatureF,Dew PointF,Humidity,Sea Level PressureIn,VisibilityMPH,Wind Direction,Wind SpeedMPH,Gust SpeedMPH,PrecipitationIn,Events,Conditions,WindDirDegrees,DateUTC
12:54 AM,42.1,30.0,62,30.01,10.0,SW,17.3,-,N/A,,Scattered Clouds,220,2013-01-09 06:54:00
1:54 AM,41.0,30.9,67,30.03,10.0,SW,17.3,26.5,N/A,,Overcast,230,2013-01-09 07:54:00
2:54 AM,39.0,30.0,70,30.06,10.0,West,16.1,23.0,N/A,,Scattered Clouds,260,2013-01-09 08:54:00
3:54 AM,36.0,30.0,79,30.09,10.0,WSW,10.4,-,N/A,,Clear,250,2013-01-09 09:54:00
4:54 AM,34.0,28.9,82,30.12,10.0,West,13.8,-,N/A,,Clear,260,2013-01-09 10:54:00
5:54 AM,33.1,28.0,82,30.16,10.0,West,10.4,-,N/A,,Clear,270,2013-01-09 11:54:00
6:54 AM,33.1,28.0,82,30.18,10.0,West,10.4,-,N/A,,Clear,260,2013-01-09 12:54:00
7:54 AM,33.1,28.0,82,30.21,10.0,WSW,8.1,-,N/A,,Partly Cloudy,240,2013-01-09 13:54:00
8:54 AM,36.0,28.9,76,30.24,10.0,SW,6.9,-,N/A,,Partly Cloudy,230,2013-01-09 14:54:00
9:54 AM,39.9,28.9,65,30.27,10.0,WSW,11.5,18.4,N/A,,Partly Cloudy,250,2013-01-09 15:54:00
10:54 AM,41.0,28.9,62,30.30,10.0,WSW,18.4,26.5,N/A,,Partly Cloudy,240,2013-01-09 16:54:00
11:54 AM,43.0,28.9,58,30.33,10.0,West,16.1,28.8,N/A,,Partly Cloudy,260,2013-01-09 17:54:00
12:54 PM,44.1,27.0,51,30.33,10.0,West,18.4,25.3,N/A,,Partly Cloudy,260,2013-01-09 18:54:00
1:54 PM,43.0,24.1,47,30.36,10.0,West,19.6,25.3,N/A,,Scattered Clouds,270,2013-01-09 19:54:00
2:54 PM,42.1,24.1,49,30.39,10.0,West,18.4,25.3,N/A,,Mostly Cloudy,280,2013-01-09 20:54:00
3:54 PM,39.9,24.1,53,30.39,10.0,WNW,11.5,-,N/A,,Mostly Cloudy,300,2013-01-09 21:54:00
4:54 PM,37.0,24.1,59,30.43,10.0,West,6.9,-,N/A,,Mostly Cloudy,260,2013-01-09 22:54:00
5:54 PM,33.1,24.1,70,30.48,10.0,West,6.9,-,N/A,,Mostly Cloudy,260,2013-01-09 23:54:00
6:54 PM,30.9,24.1,76,30.47,10.0,Calm,Calm,-,N/A,,Scattered Clouds,0,2013-01-10 00:54:00
7:54 PM,27.0,21.9,81,30.48,10.0,Calm,Calm,-,N/A,,Partly Cloudy,0,2013-01-10 01:54:00
8:54 PM,26.1,21.0,81,30.48,10.0,Calm,Calm,-,N/A,,Partly Cloudy,0,2013-01-10 02:54:00
9:54 PM,26.1,21.9,84,30.48,10.0,South,5.8,-,N/A,,Scattered Clouds,180,2013-01-10 03:54:00
10:54 PM,25.0,21.9,88,30.51,10.0,South,4.6,-,N/A,,Partly Cloudy,190,2013-01-10 04:54:00
11:54 PM,26.1,21.9,84,30.51,10.0,South,4.6,-,N/A,,Partly Cloudy,170,2013-01-10 05:54:00